JUGNU
1 37839U 11058B 20254.06074177 .00000303 00000-0 19473-4 0 9994
2 37839 19.9608 129.6683 0018909 240.8012 268.9698 14.12687653460870
SRMSAT
1 37841U 11058D 20254.18600948 .00000328 00000-0 35214-4 0 9999
2 37841 019.9711 194.9937 0011994 095.0481 036.2081 14.10670005460145
AO-71
1 37854U 11061E 20254.06214021 .00001976 00000-0 10570-3 0 9994
2 37854 101.7080 028.9992 0157938 170.0967 190.3422 15.07477390484222
HRBE
1 37855U 11061F 20254.32832363 .00001850 00000-0 97938-4 0 9994
2 37855 101.7206 26.5183 0170505 182.9479 177.0745 15.06494340484452
HORYU-2
1 38340U 12025D 20254.16016151 .00000098 00000-0 22104-4 0 9992
2 38340 098.2730 309.7155 0012593 127.4475 232.7881 14.75886434437048
RS-40
1 38735U 12041C 20254.71755695 .00000027 00000-0 12390-3 0 9999
2 38735 82.4783 307.5048 0016404 339.7763 20.2662 12.42580699368449
BEESAT-3
1 39135U 13015F 20253.75288935 .00001100 00000-0 62447-4 0 9999
2 39135 064.8679 029.1319 0034041 229.5921 130.2235 15.18331232408018
BEESAT-2
1 39136U 13015G 20253.76840303 .00000830 00000-0 50361-4 0 9995
2 39136 064.8740 034.3528 0034680 270.4274 089.2878 15.17723371407915
ZACUBE-1
1 39417U 13066B 20254.20781172 .00000186 00000-0 29611-4 0 9999
2 39417 097.5698 247.5330 0058906 001.5776 358.5613 14.81314882367588
TRITON-1
1 39427U 13066M 20254.54201210 .00000145 00000-0 31004-4 0 9991
2 39427 97.7336 210.7834 0113876 165.1971 195.2616 14.68040446364340
GOMX-1
1 39430U 13066Q 20254.75271823 .00000147 00000-0 36164-4 0 9999
2 39430 97.7928 188.1399 0149565 276.1322 82.2868 14.59434227362247
LO-74
1 39440U 13066AA 20254.16032299 .00000187 00000-0 32775-4 0 9995
2 39440 097.6387 232.0141 0081520 065.6017 295.3673 14.76048556365078
AO-73
1 39444U 13066AE 20254.22408659 .00000231 00000-0 34578-4 0 9996
2 39444 097.5634 249.8238 0057779 353.3458 006.6982 14.82176339365922
SPROUT
1 39770U 14029E 20254.82951906 .00000714 00000-0 84163-4 0 9993
2 39770 97.9010 0.7714 0009946 51.8106 308.3985 14.87848833341752
DUCHIFAT-1
1 40021U 14033M 20254.58023740 .00000282 00000-0 34418-4 0 9996
2 40021 97.9436 186.3475 0013328 13.3190 346.8377 14.90968199338575
NANOSATCBR1
1 40024U 14033Q 20254.31508308 .00000160 00000-0 22447-4 0 9992
2 40024 97.9271 182.1814 0012765 19.2698 340.8999 14.90128240338397
DTUSAT-2
1 40030U 14033W 20254.03837275 .00000156 00000-0 22727-4 0 9992
2 40030 97.9007 175.6144 0012555 23.8291 336.3504 14.88755666338107
EO-80
1 40032U 14033Y 20254.19454894 .00000202 00000-0 27605-4 0 9995
2 40032 097.9013 175.7731 0012502 024.0469 336.1329 14.88706225337593
ANTELSAT
1 40034U 14033AA 20254.17285787 .00000134 00000-0 26949-4 0 9992
2 40034 097.7055 105.7682 0060093 084.9726 275.8340 14.74293755334364
VELOX-1
1 40057U 14034E 20254.80823868 .00000222 00000-0 38555-4 0 9990
2 40057 98.2916 34.1697 0009829 228.0256 132.0120 14.77920868334243
DAURIA DX 1
1 40071U 14037C 20254.75891913 .00000067 00000-0 16149-4 0 9991
2 40071 98.4630 77.8956 0007557 217.9083 142.1602 14.81388912333886
HODOYOSHI-1
1 40299U 14070B 20254.81231245 .00000433 00000-0 20656-4 0 9998
2 40299 97.3171 329.5500 0011204 252.8475 224.8029 15.24159623324812
CHUBUSAT-1
1 40300U 14070C 20254.79201344 .00000284 00000-0 15126-4 0 9995
2 40300 97.2800 321.3758 0018145 273.8468 226.0656 15.22607960324498
QSAT-EOS
1 40301U 14070D 20254.78244050 .00001240 00000-0 48963-4 0 9994
2 40301 97.2869 327.2627 0023364 244.4440 264.0511 15.27182835324954
FIREBIRD FU3
1 40377U 15003B 20254.17184308 .00001384 00000-0 56207-4 0 9995
2 40377 099.0887 331.6941 0123421 031.5749 329.2810 15.20376727310170
FIREBIRD FU4
1 40378U 15003C 20254.61582556 .00001419 00000-0 57452-4 0 9994
2 40378 99.0890 332.3334 0123554 29.9619 330.8607 15.20396470310251
GRIFEX
1 40379U 15003D 20254.59608085 .00001210 00000-0 53913-4 0 9995
2 40379 99.0947 323.7247 0133098 56.5254 304.8614 15.16637196309757
NO-84
1 40654U 15025D 20253.51781169 .00011488 00000-0 12791-3 0 291
2 40654 54.9852 272.6750 0115074 48.0105 313.0728 15.55677538182107
DEORBITSAIL
1 40719U 15032E 20254.18168096 .00000262 00000-0 44262-4 0 9996
2 40719 097.8584 140.6903 0015154 297.8446 062.1228 14.77062106278601
NUDT-PHONESAT
1 40900U 15049B 20254.80232845 .00001821 00000-0 77043-4 0 9994
2 40900 97.4311 265.0287 0013886 48.7883 72.1546 15.24412791276190
XW-2A
1 40903U 15049E 20254.78039270 .00001724 00000-0 40482-4 0 9990
2 40903 97.2792 303.7675 0011729 320.0981 175.8675 15.43388376279632
XW-2C
1 40906U 15049H 20254.78875176 .00000489 00000-0 28713-4 0 9996
2 40906 97.4795 254.8945 0016382 79.2463 45.9405 15.16164738275182
XW-2D
1 40907U 15049J 20254.83422720 .00000355 00000-0 21692-4 0 9997
2 40907 97.4783 254.6607 0015800 76.5740 44.1015 15.16408015275216
LILACSAT-2
1 40908U 15049K 20254.83554693 -.00000026 00000-0 22019-5 0 9994
2 40908 97.4948 252.8969 0017558 86.3230 36.4707 15.14094657274915
XW-2E
1 40909U 15049L 20254.81998933 .00000865 00000-0 45019-4 0 9996
2 40909 97.4659 258.2649 0015167 66.9054 56.5842 15.18581818275482
XW-2F
1 40910U 15049M 20254.79834753 .00000903 00000-0 47502-4 0 9996
2 40910 97.4706 257.3289 0016389 65.2449 59.3912 15.18090137275280
XW-2B
1 40911U 15049N 20254.82261752 .00000503 00000-0 29346-4 0 9996
2 40911 97.4795 255.3472 0015727 76.9947 44.9028 15.16333335275105
DCBB
1 40912U 15049P 20254.85461985 .00000897 00000-0 44105-4 0 9996
2 40912 97.4491 261.6103 0015897 45.4608 75.1404 15.20503765275692
TW-1C
1 40926U 15051B 20254.79148980 .00024034 00000-0 20514-3 0 9990
2 40926 97.0750 307.2825 0007177 118.8066 334.1943 15.69477734280392
TW-1A
1 40928U 15051D 20254.82071498 .00002286 00000-0 53637-4 0 9993
2 40928 97.1052 280.5711 0008698 229.4881 217.0161 15.43038187278531
IO-86
1 40931U 15052B 20254.11408616 .00000691 00000-0 71447-5 0 9994
2 40931 5.9979 91.6387 0013323 33.4588 326.6466 14.76642033267795
LQSat
1 40958U 15057A 20254.15901926 -.00000011 00000-0 58265-5 0 9994
2 40958 097.8451 314.7419 0016953 235.1471 124.8143 14.73129293264981
ATHENOXAT-1
1 41168U 15077C 20254.00100888 .00001701 00000-0 52923-4 0 9992
2 41168 14.9874 161.0154 0011361 225.5692 134.3699 15.14536294262180
ChubuSat-2
1 41338U 16012B 20254.12908009 .00000271 00000-0 14254-4 0 9991
2 41338 031.0027 168.1648 0013894 235.5616 124.3706 15.00325735250462
ChubuSat-3
1 41339U 16012C 20254.18104340 .00000316 00000-0 17650-4 0 9997
2 41339 31.0111 165.3671 0013573 244.5455 115.3775 15.00487846250476
Horyu-4
1 41340U 16012D 20254.05744066 .00000395 00000-0 23031-4 0 9997
2 41340 031.0047 152.9793 0014069 268.1328 091.7697 15.01550935250601
OUFTI-1
1 41458U 16025C 20254.20823304 .00001116 00000-0 59812-4 0 9999
2 41458 098.1124 009.3132 0161478 284.4033 073.9318 15.07068697240240
e-st@r-II
1 41459U 16025D 20254.74381484 .00000142 00000-0 11872-4 0 9999
2 41459 98.1111 9.2215 0162978 284.7694 73.5542 15.06611507240282
AAUSAT4
1 41460U 16025E 20254.81449101 .00000692 00000-0 37978-4 0 9995
2 41460 98.1089 11.9388 0151985 272.3176 86.0659 15.09001712240511
LO-87
1 41557U 16033B 20254.76852852 .00001014 00000-0 39533-4 0 9994
2 41557 97.4026 344.4449 0014544 140.8657 219.3637 15.28200039238805
